This demonstration page uses our WeatherBlox Daily Observations layout. Learn more.

Hourly Observations for August 12, 2020

Temp ( °F °C ) Dew Point ( °F °C ) Humidity (%) Winds ( mph kmh ) Pressure ( in mb ) Visibility ( mi km ) Precip ( " mm )
12:15 am 00:15 Clear 77 25 73 23 89 89 SW 5 7 29.96 1015 10 16.0934 0 0
12:35 am 00:35 Clear 77 25 73 23 89 89 Calm 29.96 1015 10 16.0934 0 0
12:55 am 00:55 Clear 77 25 73 23 89 89 Calm 29.96 1015 10 16.0934 0 0
1:15 am 01:15 Clear 75 24 73 23 94 94 Calm 29.97 1015 10 16.0934 0 0
1:35 am 01:35 Clear 77 25 73 23 89 89 SW 5 7 29.97 1015 10 16.0934 0 0
1:55 am 01:55 Clear 75 24 73 23 94 94 S 5 7 29.99 1015 10 16.0934 0 0
2:15 am 02:15 Clear 75 24 73 23 94 94 SW 5 7 29.99 1015 10 16.0934 0 0
2:35 am 02:35 Clear 73 23 73 23 100 100 Calm 29.99 1015 10 16.0934 0 0
2:55 am 02:55 Clear 73 23 72 22 94 94 Calm 29.98 1015 10 16.0934 0 0
3:15 am 03:15 Mostly Cloudy with Nearby Thunderstorms 73 23 72 22 94 94 Calm 29.99 1015 10 16.0934 0 0
3:35 am 03:35 Mostly Cloudy with Nearby Thunderstorms 73 23 73 23 100 100 SSE 6 9 29.99 1015 10 16.0934 0 0
3:55 am 03:55 Cloudy with Thunderstorms 75 24 73 23 94 94 S 5 7 29.99 1015 10 16.0934 0 0
4:15 am 04:15 Cloudy with Nearby Thunderstorms 73 23 72 22 94 94 S 10 17 30 1016 10 16.0934 0 0
4:35 am 04:35 Cloudy 73 23 72 22 94 94 S 12 19 30.01 1016 10 16.0934 0 0
4:55 am 04:55 Cloudy 73 23 72 22 94 94 SSW 8 13 30.02 1016 10 16.0934 0 0
5:15 am 05:15 Cloudy with Thunderstorms 72 22 70 21 94 94 SSW 10 17 30.03 1017 10 16.0934 0 0
5:35 am 05:35 Cloudy with Nearby Thunderstorms 70 21 70 21 100 100 SSW 10 17 30.04 1017 10 16.0934 0 0
5:55 am 05:55 Cloudy 70 21 70 21 100 100 S 10 17 30.05 1018 10 16.0934 0 0
6:15 am 06:15 Cloudy with Nearby Thunderstorms 70 21 70 21 100 100 SSW 10 17 30.05 1018 10 16.0934 0 0
6:35 am 06:35 Cloudy 70 21 70 21 100 100 W 7 11 30.04 1017 10 16.0934 0 0
6:55 am 06:55 Mostly Cloudy 70 21 68 20 94 94 WSW 7 11 30.04 1017 10 16.0934 0 0
7:15 am 07:15 Partly Cloudy 70 21 68 20 94 94 W 5 7 30.04 1017 10 16.0934 0 0
7:35 am 07:35 Partly Cloudy 70 21 68 20 94 94 W 3 6 30.04 1017 10 16.0934 0 0
7:55 am 07:55 Sunny 70 21 68 20 94 94 N 3 6 30.04 1017 10 16.0934 0 0
8:15 am 08:15 Sunny 70 21 70 21 100 100 NNW 5 7 30.04 1017 10 16.0934 0 0
8:35 am 08:35 Sunny 72 22 70 21 94 94 Calm 30.04 1017 10 16.0934 0 0
8:55 am 08:55 Sunny 73 23 70 21 89 89 Calm 30.04 1017 10 16.0934 0 0
9:15 am 09:15 Sunny 77 25 72 22 83 83 Calm 30.03 1017 10 16.0934 0 0
9:35 am 09:35 Sunny 79 26 72 22 79 79 NNW 5 7 30.03 1017 10 16.0934 0 0
9:55 am 09:55 Sunny 81 27 72 22 74 74 N 5 7 30.04 1017 10 16.0934 0 0
10:15 am 10:15 Sunny 81 27 72 22 74 74 N 5 7 30.04 1017 10 16.0934 0 0
10:35 am 10:35 Sunny 82 28 72 22 70 70 NNE 5 7 30.03 1017 10 16.0934 0 0
10:55 am 10:55 Sunny 82 28 72 22 70 70 NE 7 11 30.03 1017 10 16.0934 0 0
11:15 am 11:15 Sunny 84 29 72 22 66 66 NE 6 9 30.04 1017 10 16.0934 0 0
11:35 am 11:35 Sunny 84 29 72 22 66 66 Calm 30.04 1017 10 16.0934 0 0
11:55 am 11:55 Sunny 86 30 72 22 62 62 Calm 30.04 1017 10 16.0934 0 0
12:15 pm 12:15 Partly Cloudy 86 30 72 22 62 62 Calm 30.04 1017 10 16.0934 0 0
12:35 pm 12:35 Partly Cloudy 86 30 72 22 62 62 Calm 30.03 1017 10 16.0934 0 0
12:55 pm 12:55 Partly Cloudy 88 31 72 22 59 59 Calm 30.03 1017 10 16.0934 0 0
1:15 pm 13:15 Mostly Cloudy 88 31 72 22 59 59 Calm 30.03 1017 10 16.0934 0 0
1:35 pm 13:35 Cloudy 86 30 72 22 62 62 Calm 30.02 1017 10 16.0934 0 0
1:55 pm 13:55 Partly Cloudy 90 32 72 22 55 55 Calm 30.01 1016 10 16.0934 0 0
2:15 pm 14:15 Partly Cloudy 90 32 72 22 55 55 SW 8 13 30 1016 10 16.0934 0 0
2:35 pm 14:35 Partly Cloudy 90 32 72 22 55 55 S 5 7 30 1016 10 16.0934 0 0
2:55 pm 14:55 Partly Cloudy 90 32 73 23 59 59 S 7 11 29.99 1015 10 16.0934 0 0
3:15 pm 15:15 Partly Cloudy 90 32 72 22 55 55 SW 6 9 29.99 1015 10 16.0934 0 0
3:35 pm 15:35 Sunny 91 33 73 23 56 56 S 5 7 29.97 1015 10 16.0934 0 0
3:55 pm 15:55 Sunny 91 33 72 22 52 52 SSE 5 7 29.97 1015 10 16.0934 0 0
4:15 pm 16:15 Sunny 91 33 72 22 52 52 Calm 29.96 1015 10 16.0934 0 0
4:35 pm 16:35 Partly Cloudy 90 32 72 22 55 55 Calm 29.98 1015 10 16.0934 0 0
4:55 pm 16:55 Partly Cloudy 91 33 72 22 52 52 WSW 5 7 29.97 1015 10 16.0934 0 0
5:15 pm 17:15 Sunny 91 33 72 22 52 52 WNW 5 7 29.97 1015 10 16.0934 0 0
5:35 pm 17:35 Sunny 90 32 73 23 59 59 WSW 5 7 29.97 1015 10 16.0934 0 0
5:55 pm 17:55 Sunny 90 32 73 23 59 59 WSW 3 6 29.96 1014 10 16.0934 0 0
6:15 pm 18:15 Mostly Cloudy with Nearby Thunderstorms 86 30 73 23 66 66 SE 14 22 29.98 1015 10 16.0934 0 0
6:35 pm 18:35 Cloudy with Thunderstorms 77 25 73 23 89 89 ESE 13 20 29.99 1016 0.5 0.80467 0.62 15.748
6:55 pm 18:55 Cloudy with Thunderstorms 75 24 72 22 89 89 SE 23 37 30.04 1017 0.25 0.402335 1.93 49.022
7:15 pm 19:15 Cloudy with Thunderstorms 70 21 70 21 100 100 ENE 15 24 30.08 1019 0.75 1.207005 0.54 13.716
7:35 pm 19:35 Cloudy with Thunderstorms 70 21 70 21 100 100 ENE 6 9 30.08 1019 1 1.60934 0.81 20.574
7:55 pm 19:55 Cloudy with Thunderstorms 70 21 70 21 100 100 NE 3 6 30.08 1019 5 8.0467 0.88 22.352
8:15 pm 20:15 Mostly Cloudy 70 21 70 21 100 100 Calm 30.07 1018 10 16.0934 0 0
8:35 pm 20:35 Mostly Cloudy 70 21 70 21 100 100 SSW 3 6 30.05 1018 7 11.26538 0.01 0.254
8:55 pm 20:55 Partly Cloudy 68 20 68 20 100 100 W 9 15 30.04 1017 10 16.0934 0.03 0.762
9:15 pm 21:15 Clear 66 19 66 19 100 100 W 3 6 30.05 1018 10 16.0934 0 0
9:35 pm 21:35 Clear 66 19 66 19 100 100 NW 7 11 30.07 1018 10 16.0934 0 0
9:55 pm 21:55 Clear 66 19 66 19 100 100 Calm 30.06 1018 10 16.0934 0 0
10:15 pm 22:15 Clear 66 19 66 19 100 100 Calm 30.06 1018 10 16.0934 0 0
10:35 pm 22:35 Clear 66 19 66 19 100 100 Calm 30.06 1018 10 16.0934 0 0
10:55 pm 22:55 Clear 66 19 66 19 100 100 Calm 30.07 1018 10 16.0934 0 0
11:15 pm 23:15 Partly Cloudy 66 19 66 19 100 100 Calm 30.08 1019 10 16.0934 0 0
11:35 pm 23:35 Partly Cloudy 66 19 66 19 100 100 Calm 30.07 1018 10 16.0934 0 0
11:55 pm 23:55 Clear 66 19 66 19 100 100 Calm 30.07 1018 10 16.0934 0 0

Powered by AerisWeather